Hourly Data Report for October 07, 2016

All times are specified in Local Standard Time (LST). Add 1 hour to adjust for Daylight Saving Time where and when it is observed.

SAINT JOHN A
NEW BRUNSWICK

45°18'58.000" N
65°53'24.000" W
108.80 m
8104901
71609
YSJ

Download Data

Hourly Data (October 2016)
Hourly Data Report for October 7, 2016
Temp Definition
°C
Dew Point Temp Definition
°C
Rel Hum Definition
%
Wind Dir Definition
10's deg

Wind Spd Definition
km/h
Visibility Definition
km
Stn Press Definition
kPa
Hmdx Definition


Wind Chill Definition


Weather Definition


TIME
00:00 Legend Double Dagger 4.8 4.8 100 11 4 24.1 101.06     LegendNANA
01:00 Legend Double Dagger 4.5 4.5 100 36 3 24.1 101.03     LegendNANA
02:00 Legend Double Dagger 5.0 5.0 100 36 3 24.1 101.05     Clear
03:00 Legend Double Dagger 5.7 5.7 100 4 5 24.1 101.03     LegendNANA
04:00 Legend Double Dagger 5.0 5.0 100 36 4 24.1 101.03     LegendNANA
05:00 Legend Double Dagger 10.0 10.0 100 31 7 24.1 101.05     Clear
06:00 Legend Double Dagger 10.4 10.3 99 33 10 24.1 101.09     LegendNANA
07:00 Legend Double Dagger 8.3 8.3 100 35 6 24.1 101.14     LegendNANA
08:00 Legend Double Dagger 13.4 11.6 89 36 18 24.1 101.15     Mostly Cloudy
09:00 Legend Double Dagger 16.1 12.1 77 1 17 24.1 101.16     LegendNANA
10:00 Legend Double Dagger 18.0 12.3 69 35 18 24.1 101.15     LegendNANA
11:00 Legend Double Dagger 20.0 12.6 62 1 15 24.1 101.14     Mostly Cloudy
12:00 Legend Double Dagger 21.4 11.8 54 1 11 24.1 101.12     LegendNANA
13:00 Legend Double Dagger 23.1 10.7 45 35 7 24.1 101.08 25   LegendNANA
14:00 Legend Double Dagger 23.5 9.3 40 36 3 24.1 101.08     Mostly Cloudy
15:00 Legend Double Dagger 22.7 12.2 51 20 14 24.1 101.05 25   LegendNANA
16:00 Legend Double Dagger 20.8 12.1 57 20 19 24.1 101.05     LegendNANA
17:00 Legend Double Dagger 19.0 11.2 60 22 9 24.1 101.07     Mainly Clear
18:00 Legend Double Dagger 15.5 10.7 73 20 7 24.1 101.06     LegendNANA
19:00 Legend Double Dagger 12.2 9.6 84 36 2 24.1 101.08     LegendNANA
20:00 Legend Double Dagger 9.3 8.9 97 2 4 24.1 101.07     Mainly Clear
21:00 Legend Double Dagger 8.4 8.4 100 3 5 24.1 101.07     LegendNANA
22:00 Legend Double Dagger 7.7 7.7 100 4 3 24.1 101.07     LegendNANA
23:00 Legend Double Dagger 5.8 5.8 100 36 3 24.1 101.05     Clear

Notes on Data Quality.

Legend

  • E = Estimated
  • M = Missing
  • NA = Not Available
  • ‡ = Partner data that is not subject to review by the National Climate Archives
Date modified: